timestamp,surface_pressure_avg,surface_temp_avg,battery_voltage,lat,long
2021-04-28 00:09:01+00:00,379.6512,4.2,12.89,47.84626,-54.09684
2021-04-28 00:19:01+00:00,379.278,4.18,12.65,47.84626,-54.09684
2021-04-28 00:29:01+00:00,378.2429,4.18,12.65,47.84626,-54.09684
2021-04-28 00:39:01+00:00,374.358,4.2,12.65,47.84626,-54.09684
2021-04-28 00:49:01+00:00,370.043,4.2,12.65,47.84626,-54.09684
2021-04-28 00:59:01+00:00,367.8463,4.2,12.65,47.84626,-54.09684
2021-04-28 01:09:01+00:00,365.9947,4.25,12.65,47.84626,-54.09684
2021-04-28 01:19:01+00:00,361.3263,4.3,12.65,47.84626,-54.09684
2021-04-28 01:29:01+00:00,358.0179,4.3,12.65,47.84626,-54.09684
2021-04-28 01:39:01+00:00,354.343,4.36,12.65,47.84626,-54.09684
2021-04-28 01:49:01+00:00,349.0297,4.4,12.65,47.84626,-54.09684
2021-04-28 01:59:01+00:00,344.1813,4.4,12.65,47.84626,-54.09684
2021-04-28 02:09:01+00:00,337.5646,4.4,12.65,47.84626,-54.09684
2021-04-28 02:19:01+00:00,330.9396,4.4,12.65,47.84626,-54.09684
2021-04-28 02:29:01+00:00,322.9813,4.46,12.65,47.84626,-54.09684
2021-04-28 02:39:01+00:00,310.9413,4.5,12.65,47.84626,-54.09684
2021-04-28 02:49:01+00:00,300.9696,4.58,12.65,47.84626,-54.09684
2021-04-28 02:59:01+00:00,292.048,4.6,12.65,47.84626,-54.09684
2021-04-28 03:09:01+00:00,279.9347,4.6,12.65,47.84626,-54.09684
2021-04-28 03:19:01+00:00,268.2164,4.73,12.65,47.84626,-54.09684
2021-04-28 03:29:01+00:00,258.7331,4.89,12.65,47.84626,-54.09684
2021-04-28 03:39:01+00:00,248.7081,5.0,12.65,47.84626,-54.09684
2021-04-28 03:49:01+00:00,235.4114,5.11,12.65,47.84626,-54.09684
2021-04-28 03:59:01+00:00,226.1581,5.2,12.65,47.84626,-54.09684
2021-04-28 04:09:01+00:00,216.1848,5.2,12.65,47.84626,-54.09684
2021-04-28 04:19:00+00:00,204.3464,5.25,12.65,47.84626,-54.09684
2021-04-28 04:29:00+00:00,194.6331,5.29,12.65,47.84626,-54.09684
2021-04-28 04:39:00+00:00,186.1115,5.31,12.65,47.84626,-54.09684
2021-04-28 04:49:00+00:00,178.3298,5.48,12.65,47.84626,-54.09684
2021-04-28 04:59:00+00:00,169.0381,5.59,12.65,47.84626,-54.09684
2021-04-28 05:09:00+00:00,163.9682,5.57,12.65,47.84626,-54.09684
2021-04-28 05:19:01+00:00,164.3698,5.56,12.65,47.84626,-54.09684
2021-04-28 05:29:01+00:00,158.0398,5.5,12.65,47.84626,-54.09684
2021-04-28 05:39:01+00:00,149.8415,5.5,12.65,47.84626,-54.09684
2021-04-28 05:49:01+00:00,151.0815,5.5,12.65,47.84626,-54.09684
2021-04-28 05:59:01+00:00,151.0098,5.41,12.65,47.84626,-54.09684
2021-04-28 06:09:01+00:00,146.4332,5.4,12.65,47.84626,-54.09684
2021-04-28 06:19:00+00:00,148.8615,5.4,12.57,47.84626,-54.09684
2021-04-28 06:29:00+00:00,153.4232,5.4,12.57,47.84626,-54.09684
2021-04-28 06:39:00+00:00,152.8715,5.39,12.57,47.84626,-54.09684
2021-04-28 06:49:00+00:00,153.1732,5.39,12.57,47.84626,-54.09684
2021-04-28 06:59:00+00:00,163.0748,5.3,12.57,47.84626,-54.09684
2021-04-28 07:09:00+00:00,169.6298,5.27,12.57,47.84626,-54.09684
2021-04-28 07:19:01+00:00,167.4765,5.25,12.57,47.84626,-54.09684
2021-04-28 07:29:01+00:00,173.3031,5.27,12.57,47.84626,-54.09684
2021-04-28 07:39:01+00:00,181.4148,5.2,12.57,47.84626,-54.09684
2021-04-28 07:49:01+00:00,183.5465,5.27,12.57,47.84626,-54.09684
2021-04-28 07:59:01+00:00,188.9232,5.31,12.57,47.84626,-54.09684
2021-04-28 08:09:01+00:00,193.9198,5.35,12.57,47.84626,-54.09684
2021-04-28 08:19:01+00:00,196.3698,5.3,12.57,47.84626,-54.09684
2021-04-28 08:29:01+00:00,201.6048,5.29,12.57,47.84626,-54.09684
2021-04-28 08:39:01+00:00,207.5147,5.29,12.57,47.84626,-54.09684
2021-04-28 08:49:01+00:00,211.7464,5.3,12.57,47.84626,-54.09684
2021-04-28 08:59:01+00:00,219.5081,5.3,12.57,47.84626,-54.09684
2021-04-28 09:09:01+00:00,229.0331,5.1,12.57,47.84626,-54.09684
2021-04-28 09:19:00+00:00,235.1114,4.94,12.57,47.84626,-54.09684
2021-04-28 09:29:00+00:00,240.6814,4.8,12.57,47.84626,-54.09684
2021-04-28 09:39:00+00:00,249.1465,4.7,12.57,47.84626,-54.09684
2021-04-28 09:49:00+00:00,257.0497,4.6,12.57,47.84626,-54.09684
2021-04-28 09:59:00+00:00,264.0797,4.6,12.57,47.84626,-54.09684
2021-04-28 10:09:00+00:00,271.7581,4.59,12.57,47.84626,-54.09684
2021-04-28 10:19:00+00:00,280.4714,4.5,12.49,47.84626,-54.09684
2021-04-28 10:29:00+00:00,289.8979,4.4,12.49,47.84626,-54.09684
2021-04-28 10:39:00+00:00,299.3914,4.2,12.49,47.84626,-54.09684
2021-04-28 10:49:00+00:00,311.1346,4.0,12.49,47.84626,-54.09684
2021-04-28 10:59:00+00:00,320.1946,3.9,12.49,47.84626,-54.09684
2021-04-28 11:09:00+00:00,329.6446,3.8,12.49,47.84626,-54.09684
2021-04-28 11:19:01+00:00,338.353,3.8,12.57,47.84626,-54.09684
2021-04-28 11:29:01+00:00,344.9347,3.8,12.57,47.84626,-54.09684
2021-04-28 11:39:01+00:00,347.3262,3.8,12.57,47.84626,-54.09684
2021-04-28 11:49:01+00:00,353.1129,3.8,12.57,47.84626,-54.09684
2021-04-28 11:59:01+00:00,360.43300000000005,3.74,12.57,47.84626,-54.09684
2021-04-28 12:09:01+00:00,364.0262,3.7,12.57,47.84626,-54.09684
2021-04-28 12:19:01+00:00,366.6396,3.7,12.65,47.84626,-54.09684
2021-04-28 12:29:01+00:00,368.0096,3.6,12.65,47.84626,-54.09684
2021-04-28 12:39:01+00:00,371.4896,3.5,12.65,47.84626,-54.09684
2021-04-28 12:49:01+00:00,372.7147,3.49,12.65,47.84626,-54.09684
2021-04-28 12:59:01+00:00,369.1047,3.46,12.65,47.84626,-54.09684
2021-04-28 13:09:01+00:00,368.1812,3.4,12.65,47.84626,-54.09684
2021-04-28 13:19:01+00:00,370.0629,3.3,12.97,47.84626,-54.09684
2021-04-28 13:29:01+00:00,367.2163,3.3,12.97,47.84626,-54.09684
2021-04-28 13:39:01+00:00,359.7446,3.37,12.97,47.84626,-54.09684
2021-04-28 13:49:01+00:00,358.3829,3.3,12.97,47.84626,-54.09684
2021-04-28 13:59:01+00:00,359.0347,3.28,12.97,47.84626,-54.09684
2021-04-28 14:09:01+00:00,351.3396,3.28,12.97,47.84626,-54.09684
2021-04-28 14:19:01+00:00,343.4713,3.3,13.29,47.84626,-54.09684
2021-04-28 14:29:01+00:00,340.0196,3.26,13.29,47.84626,-54.09684
2021-04-28 14:39:01+00:00,331.1046,3.27,13.29,47.84626,-54.09684
2021-04-28 14:49:01+00:00,320.7897,3.2,13.29,47.84626,-54.09684
2021-04-28 14:59:01+00:00,312.138,3.2,13.29,47.84626,-54.09684
2021-04-28 15:09:01+00:00,303.6531,3.2,13.29,47.84626,-54.09684
2021-04-28 15:19:01+00:00,290.9164,3.3,13.37,47.84626,-54.09684
2021-04-28 15:29:01+00:00,279.448,3.3,13.37,47.84626,-54.09684
2021-04-28 15:39:01+00:00,274.0831,3.39,13.37,47.84626,-54.09684
2021-04-28 15:49:01+00:00,262.4698,3.58,13.37,47.84626,-54.09684
2021-04-28 15:59:01+00:00,246.6747,3.78,13.37,47.84626,-54.09684
2021-04-28 16:09:01+00:00,238.5598,3.8,13.37,47.84626,-54.09684
2021-04-28 16:19:01+00:00,228.5397,3.87,13.37,47.84626,-54.09684
2021-04-28 16:29:01+00:00,212.0131,4.0,13.37,47.84626,-54.09684
2021-04-28 16:39:01+00:00,203.3965,4.1,13.37,47.84626,-54.09684
2021-04-28 16:49:01+00:00,199.3981,4.1,13.37,47.84626,-54.09684
2021-04-28 16:59:01+00:00,187.2614,4.1,13.37,47.84626,-54.09684
2021-04-28 17:09:01+00:00,177.3299,4.1,13.37,47.84626,-54.09684
2021-04-28 17:19:01+00:00,176.1398,4.1,13.84,47.84626,-54.09684
2021-04-28 17:29:01+00:00,172.2898,4.11,13.84,47.84626,-54.09684
2021-04-28 17:39:01+00:00,165.3765,4.23,13.84,47.84626,-54.09684
2021-04-28 17:49:01+00:00,165.8165,4.27,13.84,47.84626,-54.09684
2021-04-28 17:59:01+00:00,165.1031,4.4,13.84,47.84626,-54.09684
2021-04-28 18:09:01+00:00,158.6548,4.5,13.84,47.84626,-54.09684
2021-04-28 18:19:01+00:00,159.1815,4.5,14.16,47.84626,-54.09684
2021-04-28 18:29:01+00:00,165.5681,4.54,14.16,47.84626,-54.09684
2021-04-28 18:39:01+00:00,164.3181,4.6,14.16,47.84626,-54.09684
2021-04-28 18:49:01+00:00,160.7798,4.6,14.16,47.84626,-54.09684
2021-04-28 18:59:01+00:00,169.8665,4.6,14.16,47.84626,-54.09684
2021-04-28 19:09:01+00:00,179.2165,4.66,14.16,47.84626,-54.09684
2021-04-28 19:19:00+00:00,177.5498,4.7,14.08,47.84626,-54.09684
2021-04-28 19:29:00+00:00,180.0915,4.65,14.08,47.84626,-54.09684
2021-04-28 19:39:00+00:00,191.4065,4.59,14.08,47.84626,-54.09684
2021-04-28 19:49:00+00:00,197.1398,4.6,14.08,47.84626,-54.09684
2021-04-28 19:59:00+00:00,199.7381,4.66,14.08,47.84626,-54.09684
2021-04-28 20:09:00+00:00,206.5781,4.53,14.08,47.84626,-54.09684
2021-04-28 20:19:01+00:00,212.7314,4.5,13.84,47.84626,-54.09684
2021-04-28 20:29:01+00:00,214.8881,4.6,13.84,47.84626,-54.09684
2021-04-28 20:39:01+00:00,219.7632,4.5,13.84,47.84626,-54.09684
2021-04-28 20:49:01+00:00,224.6131,4.39,13.84,47.84626,-54.09684
2021-04-28 20:59:01+00:00,228.4314,4.57,13.84,47.84626,-54.09684
2021-04-28 21:09:01+00:00,237.8831,4.5,13.84,47.84626,-54.09684
2021-04-28 21:19:01+00:00,245.4698,4.33,13.44,47.84626,-54.09684
2021-04-28 21:29:01+00:00,249.3014,4.48,13.44,47.84626,-54.09684
2021-04-28 21:39:01+00:00,255.1764,4.47,13.44,47.84626,-54.09684
2021-04-28 21:49:01+00:00,267.1298,4.46,13.44,47.84626,-54.09684
2021-04-28 21:59:01+00:00,274.1215,4.5,13.44,47.84626,-54.09684
2021-04-28 22:09:01+00:00,277.4097,4.5,13.44,47.84626,-54.09684
2021-04-28 22:19:01+00:00,285.9997,4.4,13.13,47.84626,-54.09684
2021-04-28 22:29:01+00:00,302.5229,4.4,13.13,47.84626,-54.09684
2021-04-28 22:39:01+00:00,313.8196,4.4,13.13,47.84626,-54.09684
2021-04-28 22:49:01+00:00,320.89799999999997,4.4,13.13,47.84626,-54.09684
2021-04-28 22:59:01+00:00,332.353,4.4,13.13,47.84626,-54.09684
2021-04-28 23:09:01+00:00,345.7179,4.4,13.13,47.84626,-54.09684
2021-04-28 23:19:01+00:00,354.7996,4.4,12.81,47.84626,-54.09684
2021-04-28 23:29:01+00:00,365.5029,4.4,12.81,47.84626,-54.09684
2021-04-28 23:39:01+00:00,372.1313,4.4,12.81,47.84626,-54.09684
2021-04-28 23:49:01+00:00,375.6113,4.4,12.81,47.84626,-54.09684
2021-04-28 23:59:01+00:00,380.8279,4.4,12.81,47.84626,-54.09684
